Vorticity
7 4 5 10 3 -5 5 6 0 4 3 4 5 7 8 -12 11 7 6 2 2 5 5 4 5 7 7 6 6 4 5 5 4 5 5 5 6 5 5 4 4 4 5 6 7 6 6 6 6
7 7 6 5 9 4 -3 -2 5 4 5 -1 1 7 1 4 6 -13 13 4 3 1 4 2 4 5 5 6 6 5 5 6 5 4 5 6 7 6 4 4 4 5 5 7 7 6 6 7 7
5 8 6 -0 2 15 5 6 -1 6 6 3 1 10 -0 9 11 9 23 4 4 3 2 4 4 5 6 5 5 6 5 6 5 5 5 6 7 5 4 4 5 5 6 7 7 6 7 7 7
5 9 9 9 6 -0 12 16 -0 11 8 5 1 -3 12 -9 7 -1 5 -4 -0 6 5 4 4 5 2 6 5 5 5 5 5 6 6 6 5 5 5 4 5 6 6 7 7 7 7 6 6
6 12 10 9 8 1 13 3 2 -4 10 4 8 1 2 9 -2 -15 -15 36 6 3 1 3 5 6 2 5 7 5 5 6 6 7 7 6 5 4 4 5 6 5 5 6 7 7 6 6 5
10 -15 9 30 9 3 2 0 6 14 -2 6 5 11 -7 8 2 6 9 2 -0 2 2 2 3 5 4 6 5 7 4 6 7 6 7 6 4 4 4 5 6 6 6 7 6 6 6 5 5
7 13 20 -19 17 10 2 5 11 3 21 -6 11 6 6 -7 6 7 -1 1 3 2 2 2 3 2 2 2 5 6 6 4 6 7 6 5 4 4 4 5 6 6 6 7 6 6 5 5 4
21 3 -11 24 9 3 1 13 -0 9 4 13 -8 13 7 2 7 2 -0 2 1 2 2 2 3 4 6 4 2 4 6 5 5 6 5 5 4 4 4 5 5 5 6 6 6 6 4 4 4
18 -9 32 -8 -14 10 1 -1 7 15 6 14 11 7 0 5 0 1 7 -2 8 5 2 2 3 3 7 6 4 4 5 6 5 6 5 4 4 4 4 4 4 5 6 6 5 5 4 4 4
18 16 17 30 4 0 12 1 7 2 -6 -2 5 -5 7 3 8 7 -5 1 5 3 4 2 2 3 4 6 6 5 6 5 6 6 6 5 5 4 5 5 4 5 5 6 6 5 4 4 3
21 21 -84 78 10 9 -5 19 -6 -5 35 2 7 6 5 -4 8 9 4 3 2 3 3 4 2 2 4 5 5 5 4 6 6 6 5 5 5 5 5 4 4 4 5 5 5 5 4 4 3
14 11 6 36 15 5 7 1 -15 -15 -18 22 4 6 15 20 -2 4 7 5 4 3 5 6 6 4 4 4 5 4 5 5 6 6 5 5 4 5 5 5 5 4 4 4 4 4 4 4 4
5 17 18 -38 28 -3 14 0 -38 23 30 -1 7 -6 -1 10 14 2 -5 8 6 4 4 3 4 5 5 7 6 7 6 6 6 7 7 5 5 4 5 5 4 5 6 4 3 4 3 3 3
11 21 -7 -17 29 -56 22 6 15 -29 4 15 2 9 0 2 6 8 6 -5 3 6 5 6 5 5 4 5 6 6 8 8 7 7 7 8 6 5 4 4 5 4 4 4 4 3 4 3 4
20 13 -9 24 11 -12 13 23 16 5 15 19 -2 8 4 0 2 4 6 9 5 8 5 4 3 7 4 15 -2 8 3 9 7 6 8 7 7 5 3 3 4 4 4 4 4 4 3 4 5
0 2 4 -1 -8 -25 36 15 0 26 16 13 44 -0 8 6 7 1 1 5 7 3 8 5 2 1 2 2 0 4 5 0 5 10 6 6 7 6 5 3 3 3 2 2 4 4 4 4 4
20 -1 20 5 15 -15 14 -26 72 6 13 72 62 9 19 9 2 6 3 4 4 6 10 -1 3 9 -4 -2 -0 5 1 3 2 2 6 7 5 4 5 6 4 4 4 4 3 3 5 5 4
5 22 3 13 2 2 5 4 4 3 -54 30 -30 41 -2 11 5 3 5 2 1 8 8 16 -3 4 -2 -8 0 11 -0 1 3 2 3 6 5 6 6 4 4 3 5 4 3 2 3 4 3
35 7 13 5 6 6 5 21 -27 -9 19 19 -38 -2 -1 12 9 5 7 8 7 7 10 13 10 6 12 10 -3 5 7 4 2 1 4 3 4 6 5 5 6 4 5 4 3 3 3 4 5
21 -49 39 21 6 6 -16 24 33 22 -25 3 28 44 26 4 9 7 6 8 5 5 6 8 7 7 4 5 3 5 6 9 6 3 2 2 3 5 4 9 10 18 6 3 4 2 3 2 6
20 19 -35 36 14 11 10 -21 -40 27 -3 -23 7 -9 20 16 8 8 5 5 5 2 9 7 5 5 10 6 6 7 4 3 1 13 1 2 4 6 1 -3 9 3 24 8 6 20 -9 -5 -3
29 -9 27 -3 17 30 30 -8 9 -23 24 27 -4 -15 2 -1 19 6 8 4 10 7 4 7 11 9 2 11 10 3 4 1 5 6 15 8 -3 2 -2 8 12 5 18 25 1 -14 18 3 3
2 2 2 26 7 33 23 -1 11 -6 12 22 4 18 26 17 7 12 6 9 2 4 2 4 2 5 7 6 11 8 4 5 3 -0 6 7 9 19 12 1 -12 -13 3 6 17 15 18 18 17
30 15 -7 11 12 19 26 17 27 29 2 10 20 22 3 25 5 11 6 5 2 1 4 6 0 -0 4 8 11 8 11 8 5 7 16 10 12 33 23 7 19 18 13 -12 -12 -6 3 -4 17
7 -8 6 -2 -4 3 -7 -15 11 19 4 16 8 19 9 25 17 1 8 4 3 3 2 2 3 6 7 4 7 10 11 15 7 1 8 -0 8 12 4 9 -4 2 -1 27 4 8 15 17 4
10 12 21 -28 34 -0 1 4 4 23 28 -4 13 24 5 11 14 8 1 1 4 5 -0 1 4 7 10 9 11 9 24 10 0 7 1 7 19 -9 14 26 -4 -4 -14 15 23 9 -3 -0 35
9 35 17 18 -33 -2 7 10 4 8 14 8 21 25 9 1 14 20 19 14 6 8 4 5 2 3 6 -0 18 18 17 24 12 7 4 4 -2 -2 17 6 10 8 6 2 -7 5 -3 12 10
-12 10 -5 7 26 7 3 16 21 3 30 15 -6 14 16 20 5 7 12 11 12 5 6 5 3 5 3 3 11 14 14 12 26 12 10 16 9 14 -5 -15 23 -7 0 1 3 5 24 15 12
39 -37 24 14 -11 4 16 8 7 1 15 20 13 26 4 2 2 8 7 10 7 0 7 10 5 1 9 23 24 24 13 13 8 7 15 9 4 0 6 2 10 7 8 9 11 6 -4 -0 9
17 -1 21 16 9 12 3 7 17 18 21 38 8 17 22 6 21 22 20 8 11 14 9 13 12 17 21 23 15 14 19 13 14 22 18 18 25 22 4 4 2 1 6 7 -8 3 14 13 8
Height
5764 5764 5765 5775 5781 5783 5798 5812 5824 5830 5835 5835 5840 5846 5847 5851 5855 5863 5866 5869 5877 5879 5882 5884 5887 5890 5892 5894 5895 5898 5899 5900 5902 5902 5903 5904 5904 5904 5904 5905 5905 5905 5904 5903 5903 5902 5902 5901 5900
5753 5752 5761 5765 5769 5778 5795 5809 5817 5826 5827 5833 5836 5839 5844 5849 5851 5857 5866 5867 5871 5875 5879 5882 5885 5888 5890 5891 5893 5896 5897 5899 5900 5901 5901 5902 5903 5904 5904 5905 5905 5904 5903 5903 5903 5902 5902 5901 5900
5739 5744 5751 5753 5760 5775 5798 5804 5814 5814 5821 5827 5829 5830 5840 5847 5849 5857 5859 5864 5868 5872 5876 5880 5883 5886 5888 5889 5891 5894 5895 5897 5898 5899 5899 5901 5902 5903 5903 5904 5904 5903 5903 5902 5902 5902 5901 5901 5900
5725 5737 5742 5741 5755 5780 5793 5801 5805 5806 5814 5821 5822 5833 5838 5844 5850 5854 5856 5861 5866 5869 5873 5877 5881 5884 5886 5888 5890 5892 5893 5896 5897 5898 5898 5900 5901 5902 5902 5902 5903 5902 5902 5902 5901 5901 5900 5900 5900
5712 5724 5729 5733 5753 5774 5782 5792 5787 5795 5807 5814 5819 5828 5835 5838 5842 5849 5854 5854 5861 5866 5871 5874 5878 5881 5884 5886 5888 5890 5892 5894 5895 5897 5897 5898 5900 5901 5901 5901 5902 5901 5900 5900 5900 5900 5900 5899 5899
5700 5712 5718 5726 5748 5765 5775 5781 5770 5790 5799 5805 5814 5821 5827 5832 5837 5844 5848 5852 5855 5862 5867 5871 5875 5879 5881 5883 5886 5889 5891 5892 5894 5895 5896 5897 5898 5899 5900 5901 5901 5900 5899 5899 5899 5900 5899 5899 5898
5690 5700 5709 5725 5744 5750 5766 5766 5772 5786 5791 5795 5804 5813 5819 5830 5831 5840 5844 5848 5852 5858 5864 5867 5871 5875 5878 5881 5884 5886 5888 5890 5892 5894 5895 5896 5897 5898 5898 5899 5899 5899 5899 5899 5898 5898 5898 5898 5897
5683 5698 5704 5719 5731 5745 5762 5757 5772 5777 5784 5789 5798 5808 5817 5823 5825 5834 5842 5845 5850 5855 5860 5864 5868 5871 5875 5879 5881 5883 5885 5888 5890 5892 5893 5895 5896 5896 5897 5897 5897 5897 5897 5897 5897 5897 5897 5897 5896
5670 5684 5696 5715 5724 5742 5750 5753 5767 5767 5774 5782 5792 5807 5812 5816 5822 5828 5838 5842 5846 5852 5856 5860 5865 5869 5872 5875 5878 5880 5883 5885 5887 5889 5891 5892 5893 5894 5895 5895 5895 5895 5895 5896 5895 5895 5895 5895 5895
5656 5673 5684 5701 5718 5729 5734 5746 5755 5757 5765 5777 5791 5799 5806 5811 5817 5825 5832 5839 5843 5848 5852 5856 5862 5865 5868 5871 5874 5877 5880 5882 5884 5886 5888 5890 5891 5892 5893 5893 5893 5894 5893 5894 5893 5894 5893 5894 5893
5650 5668 5679 5692 5706 5717 5726 5736 5742 5750 5761 5776 5789 5791 5800 5807 5812 5820 5827 5834 5841 5844 5847 5852 5857 5861 5864 5866 5869 5873 5876 5879 5881 5883 5884 5886 5888 5889 5890 5891 5891 5892 5892 5892 5892 5892 5892 5892 5891
5647 5661 5672 5685 5690 5705 5714 5724 5731 5743 5754 5768 5780 5784 5792 5801 5806 5813 5822 5828 5835 5840 5843 5848 5852 5857 5860 5862 5865 5868 5872 5875 5877 5879 5881 5882 5884 5886 5887 5888 5888 5889 5889 5889 5889 5889 5889 5888 5888
5640 5652 5662 5670 5685 5698 5707 5716 5726 5738 5743 5757 5769 5775 5784 5794 5799 5807 5814 5822 5829 5834 5838 5843 5847 5851 5855 5859 5861 5864 5868 5871 5873 5875 5877 5878 5880 5882 5883 5884 5885 5885 5885 5886 5886 5886 5886 5885 5884
5632 5643 5652 5657 5670 5689 5697 5708 5722 5730 5737 5753 5763 5770 5777 5786 5795 5801 5809 5817 5823 5828 5834 5838 5842 5846 5850 5855 5857 5860 5864 5867 5869 5872 5874 5875 5877 5878 5880 5881 5881 5881 5882 5882 5882 5883 5882 5882 5880
5628 5638 5642 5650 5667 5679 5690 5703 5719 5726 5734 5743 5753 5760 5769 5780 5789 5796 5804 5811 5818 5824 5828 5832 5836 5841 5845 5850 5853 5856 5860 5863 5865 5867 5870 5871 5873 5874 5876 5876 5877 5878 5878 5878 5879 5879 5879 5878 5877
5621 5631 5637 5649 5664 5678 5688 5700 5713 5720 5725 5735 5745 5754 5762 5774 5782 5790 5797 5803 5807 5813 5821 5824 5830 5835 5841 5846 5849 5852 5855 5859 5861 5861 5864 5866 5868 5870 5870 5873 5873 5875 5875 5875 5876 5876 5875 5874 5873
5617 5626 5638 5647 5661 5672 5682 5697 5705 5716 5723 5726 5734 5741 5753 5764 5774 5783 5791 5797 5803 5809 5814 5818 5823 5830 5836 5841 5843 5847 5850 5853 5856 5857 5858 5861 5863 5864 5864 5866 5868 5869 5869 5869 5871 5870 5870 5869 5868
5615 5626 5633 5643 5654 5666 5677 5690 5695 5708 5716 5720 5726 5735 5747 5756 5768 5776 5784 5792 5798 5804 5808 5812 5820 5824 5829 5835 5839 5841 5845 5848 5850 5852 5854 5855 5857 5857 5858 5858 5860 5862 5864 5864 5864 5864 5863 5863 5863
5610 5622 5630 5640 5650 5665 5675 5682 5690 5699 5706 5714 5717 5730 5741 5752 5759 5768 5777 5785 5792 5798 5803 5809 5813 5816 5822 5829 5834 5836 5838 5840 5842 5844 5847 5849 5849 5850 5850 5851 5852 5854 5856 5857 5857 5857 5857 5856 5856
5607 5617 5627 5635 5644 5655 5665 5677 5684 5691 5697 5705 5714 5719 5733 5743 5753 5762 5771 5779 5786 5792 5799 5802 5807 5811 5815 5820 5825 5830 5832 5833 5833 5835 5839 5842 5842 5842 5843 5842 5845 5846 5846 5848 5850 5850 5849 5849 5849
5606 5615 5624 5634 5642 5649 5658 5665 5670 5680 5689 5698 5708 5718 5727 5737 5747 5757 5764 5773 5780 5787 5792 5797 5801 5805 5808 5812 5814 5817 5820 5823 5826 5829 5832 5832 5832 5833 5835 5835 5837 5837 5838 5839 5840 5840 5841 5841 5841
5606 5614 5623 5632 5639 5646 5653 5662 5669 5683 5690 5695 5704 5714 5725 5731 5740 5751 5760 5767 5776 5780 5785 5790 5794 5799 5802 5804 5808 5810 5812 5814 5817 5820 5824 5824 5826 5825 5826 5826 5826 5828 5829 5830 5830 5831 5832 5832 5831
5606 5617 5626 5634 5639 5645 5652 5660 5670 5675 5682 5695 5706 5712 5718 5727 5735 5746 5756 5761 5768 5774 5778 5784 5789 5794 5796 5798 5800 5801 5804 5806 5808 5813 5815 5815 5816 5817 5819 5819 5819 5817 5818 5819 5820 5820 5820 5821 5822
5608 5618 5627 5634 5640 5645 5652 5659 5662 5671 5688 5691 5698 5706 5713 5721 5729 5740 5750 5755 5762 5767 5771 5775 5781 5785 5787 5789 5790 5791 5794 5798 5800 5803 5804 5806 5808 5808 5809 5810 5810 5811 5810 5811 5811 5812 5813 5813 5812
5611 5616 5625 5632 5637 5645 5651 5657 5663 5671 5678 5687 5694 5700 5707 5714 5722 5733 5741 5749 5757 5761 5764 5767 5772 5776 5778 5779 5779 5782 5786 5788 5790 5792 5794 5797 5798 5796 5800 5801 5802 5801 5802 5801 5802 5803 5803 5803 5803
5609 5617 5623 5631 5637 5644 5648 5656 5664 5668 5673 5682 5689 5694 5699 5707 5714 5725 5735 5743 5749 5753 5757 5760 5763 5767 5769 5770 5771 5773 5774 5776 5778 5779 5782 5785 5788 5788 5789 5791 5791 5791 5793 5792 5792 5794 5795 5794 5796
5613 5618 5627 5634 5637 5644 5650 5656 5663 5667 5672 5679 5684 5688 5695 5702 5707 5717 5728 5735 5741 5744 5749 5753 5756 5758 5759 5760 5760 5761 5762 5763 5765 5769 5772 5774 5775 5774 5777 5780 5780 5780 5782 5783 5784 5783 5784 5784 5784
5614 5619 5627 5632 5638 5643 5649 5654 5659 5663 5668 5672 5679 5685 5691 5696 5705 5710 5720 5727 5732 5736 5741 5745 5747 5748 5747 5748 5748 5748 5749 5751 5755 5758 5760 5761 5762 5763 5765 5767 5768 5769 5770 5772 5772 5772 5772 5774 5774
5615 5622 5626 5632 5638 5642 5647 5652 5655 5658 5663 5667 5673 5679 5685 5691 5697 5704 5712 5720 5724 5728 5732 5735 5737 5737 5736 5736 5736 5737 5739 5740 5743 5745 5747 5749 5750 5752 5752 5754 5756 5756 5758 5760 5762 5761 5762 5762 5763
5619 5622 5626 5632 5637 5641 5645 5650 5653 5655 5659 5663 5668 5675 5681 5687 5693 5699 5706 5712 5717 5720 5722 5724 5725 5726 5727 5727 5728 5729 5730 5731 5732 5734 5734 5737 5738 5740 5741 5743 5744 5745 5745 5747 5748 5750 5750 5750 5750